CFG4805 EDDM-EDDF

Flight info

Callsign CFG4805
Flight time 0h 35m
Altitude 24000
Route GIVMI1N GIVMI Y101 ERNAS T161 DEBHI DEBHI1B
Aircraft A320/M-SDE3FGHIJ1LORVWXYZ/LB1

Departure

Time 2026-05-06 20:51
Airport Munich Airport (EDDM)

Arrival

Time 2026-05-06 21:26
Airport Frankfurt Main Airport (EDDF)
Time Latitude Longitude Altitude Speed Heading
2026-05-06 20:19 48.35046 11.78357 1477 ft 0 kts 83°
2026-05-06 20:36 48.35045 11.78343 1486 ft 4 kts 83°
2026-05-06 20:37 48.35042 11.78303 1479 ft 4 kts 83°
2026-05-06 20:37 48.35039 11.78270 1476 ft 4 kts 77°
2026-05-06 20:37 48.35029 11.78235 1481 ft 4 kts 40°
2026-05-06 20:37 48.35006 11.78221 1478 ft 4 kts 357°
2026-05-06 20:38 48.34986 11.78224 1476 ft 0 kts 353°
2026-05-06 20:40 48.34989 11.78223 1486 ft 3 kts 353°
2026-05-06 20:40 48.35047 11.78213 1473 ft 12 kts 353°
2026-05-06 20:40 48.35127 11.78200 1482 ft 11 kts 353°
2026-05-06 20:41 48.35205 11.78186 1486 ft 11 kts 353°
2026-05-06 20:41 48.35281 11.78172 1480 ft 11 kts 352°
2026-05-06 20:41 48.35345 11.78126 1486 ft 11 kts 298°
2026-05-06 20:41 48.35342 11.77995 1479 ft 15 kts 259°
2026-05-06 20:42 48.35329 11.77829 1475 ft 17 kts 269°
2026-05-06 20:42 48.35381 11.77781 1486 ft 7 kts
2026-05-06 20:42 48.35466 11.77760 1479 ft 19 kts 352°
2026-05-06 20:42 48.35610 11.77741 1486 ft 23 kts 355°
2026-05-06 20:43 48.35777 11.77709 1479 ft 26 kts 351°
2026-05-06 20:43 48.35946 11.77687 1478 ft 16 kts 20°
2026-05-06 20:43 48.35971 11.77773 1486 ft 13 kts 76°
2026-05-06 20:43 48.35991 11.77985 1486 ft 24 kts 82°
2026-05-06 20:44 48.36010 11.78226 1486 ft 23 kts 83°
2026-05-06 20:44 48.36029 11.78467 1486 ft 23 kts 83°
2026-05-06 20:44 48.36047 11.78695 1486 ft 22 kts 83°
2026-05-06 20:44 48.36065 11.78921 1474 ft 21 kts 83°
2026-05-06 20:45 48.36081 11.79140 1486 ft 21 kts 84°
2026-05-06 20:45 48.36133 11.79292 1481 ft 14 kts 13°
2026-05-06 20:45 48.36206 11.79372 1479 ft 14 kts 75°
2026-05-06 20:45 48.36218 11.79512 1483 ft 13 kts 83°
2026-05-06 20:46 48.36229 11.79652 1486 ft 13 kts 83°
2026-05-06 20:46 48.36240 11.79791 1477 ft 13 kts 83°
2026-05-06 20:46 48.36251 11.79930 1480 ft 13 kts 82°
2026-05-06 20:46 48.36263 11.80067 1486 ft 13 kts 84°
2026-05-06 20:47 48.36272 11.80204 1486 ft 13 kts 85°
2026-05-06 20:47 48.36281 11.80339 1472 ft 13 kts 82°
2026-05-06 20:47 48.36292 11.80473 1475 ft 13 kts 83°
2026-05-06 20:47 48.36303 11.80608 1486 ft 13 kts 83°
2026-05-06 20:48 48.36315 11.80743 1478 ft 13 kts 82°
2026-05-06 20:48 48.36326 11.80879 1486 ft 13 kts 85°
2026-05-06 20:48 48.36334 11.81013 1486 ft 13 kts 84°
2026-05-06 20:48 48.36344 11.81149 1486 ft 15 kts 84°
2026-05-06 20:49 48.36356 11.81346 1477 ft 20 kts 84°
2026-05-06 20:49 48.36373 11.81553 1483 ft 20 kts 82°
2026-05-06 20:49 48.36392 11.81758 1486 ft 20 kts 82°
2026-05-06 20:49 48.36414 11.81952 1476 ft 18 kts 58°
2026-05-06 20:50 48.36526 11.81990 1476 ft 24 kts 354°
2026-05-06 20:50 48.36675 11.81907 1483 ft 16 kts 279°
2026-05-06 20:50 48.36657 11.81778 1486 ft 17 kts 266°
2026-05-06 20:50 48.36616 11.81203 1486 ft 100 kts 262°
2026-05-06 20:51 48.36512 11.79861 1744 ft 141 kts 262°
2026-05-06 20:51 48.36392 11.78372 2714 ft 147 kts 264°
2026-05-06 20:51 48.36279 11.76791 3507 ft 161 kts 265°
2026-05-06 20:51 48.36153 11.75000 4089 ft 184 kts 266°
2026-05-06 20:52 48.36009 11.72966 4804 ft 204 kts 265°
2026-05-06 20:52 48.35849 11.70820 5939 ft 209 kts 265°
2026-05-06 20:52 48.35761 11.68608 6603 ft 213 kts 277°
2026-05-06 20:52 48.36295 11.66457 7115 ft 238 kts 296°
2026-05-06 20:53 48.37187 11.64237 7619 ft 254 kts 297°
2026-05-06 20:53 48.38127 11.61947 8130 ft 260 kts 297°
2026-05-06 20:53 48.39090 11.59611 8644 ft 265 kts 297°
2026-05-06 20:53 48.40071 11.57222 9175 ft 271 kts 297°
2026-05-06 20:54 48.41067 11.54789 9707 ft 275 kts 296°
2026-05-06 20:54 48.42077 11.52312 10208 ft 279 kts 296°
2026-05-06 20:54 48.43101 11.49795 10690 ft 282 kts 296°
2026-05-06 20:54 48.44129 11.47269 11193 ft 285 kts 298°
2026-05-06 20:55 48.45436 11.44958 11698 ft 295 kts 313°
2026-05-06 20:55 48.47170 11.43202 12218 ft 314 kts 329°
2026-05-06 20:55 48.49348 11.42154 12751 ft 344 kts 345°
2026-05-06 20:55 48.51741 11.41506 13291 ft 353 kts 346°
2026-05-06 20:56 48.54164 11.40854 13813 ft 355 kts 346°
2026-05-06 20:56 48.56606 11.40195 14286 ft 358 kts 346°
2026-05-06 20:56 48.59069 11.39525 14778 ft 362 kts 346°
2026-05-06 20:56 48.61563 11.38843 15272 ft 366 kts 347°
2026-05-06 20:57 48.64084 11.38149 15776 ft 370 kts 347°
2026-05-06 20:57 48.66634 11.37446 16292 ft 374 kts 347°
2026-05-06 20:57 48.69172 11.36517 16819 ft 376 kts 338°
2026-05-06 20:57 48.71563 11.34926 17356 ft 376 kts 328°
2026-05-06 20:58 48.73768 11.32795 17896 ft 378 kts 323°
2026-05-06 20:58 48.75973 11.30559 18405 ft 383 kts 323°
2026-05-06 20:58 48.78201 11.28298 18878 ft 387 kts 323°
2026-05-06 20:58 48.80447 11.26019 19361 ft 390 kts 323°
2026-05-06 20:59 48.82684 11.23748 19855 ft 393 kts 323°
2026-05-06 20:59 48.84901 11.21319 20339 ft 394 kts 316°
2026-05-06 20:59 48.86937 11.18527 20853 ft 395 kts 314°
2026-05-06 20:59 48.88977 11.15688 21370 ft 398 kts 314°
2026-05-06 21:00 48.91029 11.12826 21904 ft 402 kts 314°
2026-05-06 21:00 48.93094 11.09941 22424 ft 405 kts 314°
2026-05-06 21:00 48.95177 11.07027 22977 ft 408 kts 314°
2026-05-06 21:00 48.97272 11.04095 23548 ft 411 kts 314°
2026-05-06 21:01 48.99388 11.01133 23812 ft 415 kts 314°
2026-05-06 21:01 49.01520 10.98151 23865 ft 414 kts 314°
2026-05-06 21:01 49.03630 10.95196 23890 ft 413 kts 314°
2026-05-06 21:01 49.05742 10.92224 23890 ft 412 kts 314°
2026-05-06 21:02 49.07848 10.89256 23891 ft 412 kts 314°
2026-05-06 21:02 49.09957 10.86285 23891 ft 412 kts 314°
2026-05-06 21:02 49.12060 10.83317 23882 ft 412 kts 314°
2026-05-06 21:02 49.14166 10.80338 23894 ft 412 kts 314°
2026-05-06 21:03 49.16268 10.77359 23893 ft 412 kts 314°
2026-05-06 21:03 49.18364 10.74382 23893 ft 412 kts 314°
2026-05-06 21:03 49.20450 10.71382 23886 ft 411 kts 313°
2026-05-06 21:03 49.22481 10.68307 23905 ft 411 kts 311°
2026-05-06 21:04 49.24470 10.65167 23894 ft 411 kts 310°
2026-05-06 21:04 49.26442 10.61994 23886 ft 411 kts 310°
2026-05-06 21:04 49.28412 10.58813 23871 ft 412 kts 310°
2026-05-06 21:04 49.30392 10.55632 23867 ft 413 kts 310°
2026-05-06 21:05 49.32382 10.52450 23872 ft 414 kts 310°
2026-05-06 21:05 49.34379 10.49276 23868 ft 412 kts 311°
2026-05-06 21:05 49.35688 10.47171 23876 ft 411 kts 308°
2026-05-06 21:05 49.37426 10.43715 23570 ft 409 kts 302°
2026-05-06 21:06 49.39064 10.40180 23065 ft 404 kts 301°
2026-05-06 21:06 49.40669 10.36668 22660 ft 400 kts 301°
2026-05-06 21:06 49.42248 10.33178 22255 ft 396 kts 301°
2026-05-06 21:06 49.43807 10.29727 21873 ft 392 kts 301°
2026-05-06 21:07 49.45354 10.26305 21440 ft 388 kts 301°
2026-05-06 21:07 49.46893 10.22911 21057 ft 384 kts 301°
2026-05-06 21:07 49.48416 10.19555 20671 ft 381 kts 301°
2026-05-06 21:07 49.49924 10.16228 20290 ft 378 kts 301°
2026-05-06 21:08 49.51415 10.12932 19906 ft 375 kts 301°
2026-05-06 21:08 49.52901 10.09647 19520 ft 372 kts 301°
2026-05-06 21:08 49.54368 10.06403 19147 ft 367 kts 302°
2026-05-06 21:08 49.55819 10.03191 18775 ft 363 kts 302°
2026-05-06 21:09 49.57256 10.00002 18405 ft 360 kts 302°
2026-05-06 21:09 49.58714 9.96886 17993 ft 357 kts 305°
2026-05-06 21:09 49.60258 9.93911 17464 ft 354 kts 306°
2026-05-06 21:09 49.61824 9.91000 16929 ft 352 kts 308°
2026-05-06 21:10 49.63402 9.88117 16372 ft 350 kts 308°
2026-05-06 21:10 49.64970 9.85265 15869 ft 347 kts 308°
2026-05-06 21:10 49.66521 9.82432 15393 ft 344 kts 308°
2026-05-06 21:10 49.68037 9.79641 14924 ft 342 kts 308°
2026-05-06 21:11 49.69572 9.76796 14453 ft 339 kts 308°
2026-05-06 21:11 49.71051 9.74049 13997 ft 336 kts 308°
2026-05-06 21:11 49.72555 9.71248 13525 ft 333 kts 308°
2026-05-06 21:11 49.74030 9.68500 13010 ft 331 kts 308°
2026-05-06 21:12 49.75472 9.65807 12513 ft 327 kts 308°
2026-05-06 21:12 49.76914 9.63107 12015 ft 324 kts 308°
2026-05-06 21:12 49.78343 9.60426 11534 ft 321 kts 308°
2026-05-06 21:12 49.79772 9.57749 11038 ft 318 kts 308°
2026-05-06 21:13 49.81174 9.55125 10547 ft 315 kts 308°
2026-05-06 21:13 49.82548 9.52550 10103 ft 311 kts 307°
2026-05-06 21:13 49.83911 9.49989 9752 ft 304 kts 307°
2026-05-06 21:13 49.85238 9.47498 9613 ft 289 kts 307°
2026-05-06 21:14 49.86494 9.45134 9325 ft 281 kts 307°
2026-05-06 21:14 49.87731 9.42800 8926 ft 278 kts 307°
2026-05-06 21:14 49.88955 9.40493 8493 ft 276 kts 307°
2026-05-06 21:14 49.90173 9.38201 8050 ft 274 kts 307°
2026-05-06 21:15 49.91380 9.35927 7598 ft 272 kts 306°
2026-05-06 21:15 49.92496 9.33583 7156 ft 269 kts 302°
2026-05-06 21:15 49.93567 9.31214 6725 ft 267 kts 302°
2026-05-06 21:15 49.94627 9.28871 6293 ft 264 kts 302°
2026-05-06 21:16 49.95683 9.26548 5799 ft 261 kts 302°
2026-05-06 21:16 49.96725 9.24246 5327 ft 259 kts 302°
2026-05-06 21:16 49.97757 9.21960 4858 ft 257 kts 302°
2026-05-06 21:16 49.98760 9.19729 4370 ft 254 kts 302°
2026-05-06 21:17 49.99919 9.17683 4028 ft 250 kts 320°
2026-05-06 21:17 50.01317 9.16172 3991 ft 233 kts 323°
2026-05-06 21:17 50.02636 9.14826 4006 ft 229 kts 324°
2026-05-06 21:17 50.03963 9.13461 4009 ft 228 kts 324°
2026-05-06 21:18 50.05273 9.12086 4001 ft 227 kts 324°
2026-05-06 21:18 50.06580 9.10709 4002 ft 226 kts 324°
2026-05-06 21:18 50.07875 9.09317 3996 ft 226 kts 324°
2026-05-06 21:18 50.09161 9.07915 3998 ft 225 kts 324°
2026-05-06 21:19 50.10440 9.06518 4001 ft 224 kts 324°
2026-05-06 21:19 50.11709 9.05134 3995 ft 223 kts 322°
2026-05-06 21:19 50.12697 9.03308 4001 ft 223 kts 294°
2026-05-06 21:19 50.13183 9.00857 4015 ft 251 kts 282°
2026-05-06 21:20 50.13245 8.98280 3984 ft 229 kts 263°
2026-05-06 21:20 50.12803 8.95922 4000 ft 227 kts 252°
2026-05-06 21:20 50.12269 8.93648 3995 ft 217 kts 251°
2026-05-06 21:20 50.11770 8.91519 3998 ft 208 kts 252°
2026-05-06 21:21 50.11267 8.89375 4000 ft 205 kts 251°
2026-05-06 21:21 50.10776 8.87282 4026 ft 205 kts 251°
2026-05-06 21:21 50.10283 8.85185 3921 ft 206 kts 252°
2026-05-06 21:21 50.09798 8.83126 3691 ft 205 kts 252°
2026-05-06 21:22 50.09302 8.81018 3432 ft 205 kts 252°
2026-05-06 21:22 50.08811 8.78938 3159 ft 203 kts 252°
2026-05-06 21:22 50.08341 8.76952 2893 ft 191 kts 252°
2026-05-06 21:22 50.07901 8.75093 2634 ft 176 kts 252°
2026-05-06 21:23 50.07502 8.73407 2410 ft 157 kts 253°
2026-05-06 21:23 50.07141 8.71883 2202 ft 142 kts 253°
2026-05-06 21:23 50.06821 8.70532 2038 ft 125 kts 253°
2026-05-06 21:23 50.06531 8.69305 1867 ft 119 kts 254°
2026-05-06 21:24 50.06249 8.68112 1712 ft 116 kts 254°
2026-05-06 21:24 50.05973 8.66946 1547 ft 114 kts 254°
2026-05-06 21:24 50.05698 8.65787 1386 ft 114 kts 252°
2026-05-06 21:24 50.05423 8.64630 1221 ft 115 kts 252°
2026-05-06 21:25 50.05146 8.63459 1057 ft 115 kts 253°
2026-05-06 21:25 50.04868 8.62290 903 ft 115 kts 252°
2026-05-06 21:25 50.04592 8.61133 747 ft 113 kts 252°
2026-05-06 21:25 50.04316 8.59971 596 ft 115 kts 251°
2026-05-06 21:26 50.04040 8.58809 434 ft 114 kts 251°
2026-05-06 21:26 50.03775 8.57698 363 ft 99 kts 249°
2026-05-06 21:26 50.03586 8.56901 353 ft 66 kts 250°
2026-05-06 21:26 50.03458 8.56372 354 ft 33 kts 251°
2026-05-06 21:27 50.03438 8.56026 348 ft 32 kts 272°
2026-05-06 21:27 50.03464 8.55793 348 ft 17 kts 282°
2026-05-06 21:27 50.03539 8.55724 349 ft 10 kts 31°
2026-05-06 21:27 50.03565 8.55799 353 ft 8 kts 61°
2026-05-06 21:28 50.03593 8.55889 355 ft 9 kts 69°
2026-05-06 21:28 50.03615 8.55975 356 ft 8 kts 69°
2026-05-06 21:28 50.03654 8.56142 355 ft 26 kts 70°
2026-05-06 21:28 50.03723 8.56431 360 ft 31 kts 69°
2026-05-06 21:29 50.03802 8.56759 356 ft 34 kts 69°
2026-05-06 21:29 50.03888 8.57117 362 ft 36 kts 70°
2026-05-06 21:29 50.03969 8.57458 370 ft 30 kts 72°
2026-05-06 21:29 50.04046 8.57777 368 ft 33 kts 70°
2026-05-06 21:30 50.04135 8.58118 369 ft 33 kts 51°
2026-05-06 21:30 50.04325 8.58185 369 ft 24 kts 341°
2026-05-06 21:30 50.04471 8.58097 366 ft 25 kts 338°
2026-05-06 21:30 50.04638 8.58000 361 ft 26 kts 340°
2026-05-06 21:31 50.04778 8.57912 361 ft 15 kts 338°
2026-05-06 21:31 50.04873 8.57847 363 ft 14 kts
2026-05-06 21:31 50.04916 8.57874 360 ft 1 kts 21°
2026-05-06 21:31 50.04921 8.57877 359 ft 0 kts 21°